Time,TemperatureF,DewpointF,PressureIn,WindDirection,WindDirectionDegrees,WindSpeedMPH,WindSpeedGustMPH,Humidity,HourlyPrecipIn,Conditions,Clouds,dailyrainin,SoftwareType,DateUTC
2013-02-11 00:02:00,44.0,33.0,29.42,West,268,14.0,-999.0,66,-99.99,,,-99.99,,2013-02-11 06:02:00,
2013-02-11 00:11:00,44.0,33.0,29.42,West,268,14.0,-999.0,66,-99.99,,,-99.99,,2013-02-11 06:11:00,
2013-02-11 00:21:00,43.0,33.0,29.42,SSW,193,9.0,-999.0,68,-99.99,,,-99.99,,2013-02-11 06:21:00,
2013-02-11 00:32:00,42.0,32.0,29.43,NW,305,10.0,-999.0,68,-99.99,,,-99.99,,2013-02-11 06:32:00,
2013-02-11 00:42:00,42.0,33.0,29.43,WSW,239,8.0,-999.0,69,-99.99,,,-99.99,,2013-02-11 06:42:00,
2013-02-11 00:52:00,42.0,33.0,29.43,WSW,239,8.0,-999.0,69,-99.99,,,-99.99,,2013-02-11 06:52:00,
2013-02-11 01:01:00,41.0,32.0,29.43,NW,323,9.0,-999.0,71,-99.99,,,-99.99,,2013-02-11 07:01:00,
2013-02-11 01:11:00,41.0,33.0,29.44,SW,219,7.0,-999.0,73,-99.99,,,-99.99,,2013-02-11 07:11:00,
2013-02-11 01:21:00,41.0,33.0,29.44,SW,219,7.0,-999.0,73,-99.99,,,-99.99,,2013-02-11 07:21:00,
2013-02-11 01:32:00,40.0,32.0,29.45,West,271,9.0,-999.0,72,-99.99,,,-99.99,,2013-02-11 07:32:00,
2013-02-11 01:41:00,39.0,31.0,29.46,WSW,253,11.0,-999.0,73,-99.99,,,-99.99,,2013-02-11 07:41:00,
2013-02-11 01:52:00,39.0,31.0,29.46,WSW,253,11.0,-999.0,73,-99.99,,,-99.99,,2013-02-11 07:52:00,
2013-02-11 02:01:00,38.0,30.0,29.47,West,261,9.0,-999.0,74,-99.99,,,-99.99,,2013-02-11 08:01:00,
2013-02-11 02:11:00,38.0,30.0,29.47,West,264,9.0,-999.0,73,-99.99,,,-99.99,,2013-02-11 08:11:00,
2013-02-11 02:21:00,38.0,30.0,29.47,West,264,9.0,-999.0,73,-99.99,,,-99.99,,2013-02-11 08:21:00,
2013-02-11 02:31:00,38.0,30.0,29.48,WSW,256,8.0,-999.0,72,-99.99,,,-99.99,,2013-02-11 08:31:00,
2013-02-11 02:42:00,37.0,28.0,29.48,West,275,12.0,-999.0,71,-99.99,,,-99.99,,2013-02-11 08:42:00,
2013-02-11 02:52:00,37.0,28.0,29.48,West,275,12.0,-999.0,71,-99.99,,,-99.99,,2013-02-11 08:52:00,
2013-02-11 03:01:00,37.0,28.0,29.49,West,260,12.0,-999.0,69,-99.99,,,-99.99,,2013-02-11 09:01:00,
2013-02-11 03:12:00,37.0,28.0,29.49,West,260,12.0,-999.0,69,-99.99,,,-99.99,,2013-02-11 09:12:00,
2013-02-11 03:21:00,36.0,27.0,29.49,WSW,246,11.0,-999.0,69,-99.99,,,-99.99,,2013-02-11 09:21:00,
2013-02-11 03:31:00,36.0,27.0,29.49,West,262,10.0,-999.0,70,-99.99,,,-99.99,,2013-02-11 09:31:00,
2013-02-11 03:41:00,36.0,27.0,29.49,West,262,10.0,-999.0,70,-99.99,,,-99.99,,2013-02-11 09:41:00,
2013-02-11 03:52:00,36.0,28.0,29.50,West,273,11.0,-999.0,72,-99.99,,,-99.99,,2013-02-11 09:52:00,
2013-02-11 04:01:00,35.0,28.0,29.51,SW,227,6.0,-999.0,75,-99.99,,,-99.99,,2013-02-11 10:01:00,
2013-02-11 04:11:00,35.0,28.0,29.51,SW,227,6.0,-999.0,75,-99.99,,,-99.99,,2013-02-11 10:11:00,
2013-02-11 04:21:00,35.0,27.0,29.51,West,266,7.0,-999.0,73,-99.99,,,-99.99,,2013-02-11 10:21:00,
2013-02-11 04:31:00,35.0,27.0,29.52,West,269,10.0,-999.0,71,-99.99,,,-99.99,,2013-02-11 10:31:00,
2013-02-11 04:42:00,35.0,27.0,29.52,West,269,10.0,-999.0,71,-99.99,,,-99.99,,2013-02-11 10:42:00,
2013-02-11 04:52:00,35.0,27.0,29.52,WNW,284,9.0,-999.0,71,-99.99,,,-99.99,,2013-02-11 10:52:00,
2013-02-11 05:01:00,35.0,27.0,29.53,WSW,257,6.0,-999.0,72,-99.99,,,-99.99,,2013-02-11 11:01:00,
2013-02-11 05:11:00,35.0,27.0,29.53,WSW,257,6.0,-999.0,72,-99.99,,,-99.99,,2013-02-11 11:11:00,
2013-02-11 05:22:00,34.0,26.0,29.53,West,261,7.0,-999.0,73,-99.99,,,-99.99,,2013-02-11 11:22:00,
2013-02-11 05:32:00,35.0,27.0,29.54,SE,142,8.0,-999.0,73,-99.99,,,-99.99,,2013-02-11 11:32:00,
2013-02-11 05:42:00,34.0,26.0,29.54,SE,138,9.0,-999.0,71,-99.99,,,-99.99,,2013-02-11 11:42:00,
2013-02-11 05:52:00,34.0,26.0,29.54,SE,138,9.0,-999.0,71,-99.99,,,-99.99,,2013-02-11 11:52:00,
2013-02-11 06:03:00,34.0,25.0,29.55,SSW,202,9.0,-999.0,69,-99.99,,,-99.99,,2013-02-11 12:03:00,
2013-02-11 06:12:00,34.0,25.0,29.55,SSW,202,9.0,-999.0,69,-99.99,,,-99.99,,2013-02-11 12:12:00,
2013-02-11 06:22:00,34.0,25.0,29.56,WSW,242,9.0,-999.0,69,-99.99,,,-99.99,,2013-02-11 12:22:00,
2013-02-11 06:32:00,34.0,25.0,29.57,West,275,8.0,-999.0,70,-99.99,,,-99.99,,2013-02-11 12:32:00,
2013-02-11 06:42:00,34.0,25.0,29.57,West,280,9.0,-999.0,70,-99.99,,,-99.99,,2013-02-11 12:42:00,
2013-02-11 06:52:00,34.0,25.0,29.57,West,280,9.0,-999.0,70,-99.99,,,-99.99,,2013-02-11 12:52:00,
2013-02-11 07:01:00,34.0,26.0,29.58,West,271,7.0,-999.0,71,-99.99,,,-99.99,,2013-02-11 13:01:00,
2013-02-11 07:11:00,34.0,25.0,29.59,West,271,7.0,-999.0,70,-99.99,,,-99.99,,2013-02-11 13:11:00,
2013-02-11 07:22:00,34.0,25.0,29.59,West,271,7.0,-999.0,70,-99.99,,,-99.99,,2013-02-11 13:22:00,
2013-02-11 07:32:00,33.0,24.0,29.59,SW,227,8.0,-999.0,70,-99.99,,,-99.99,,2013-02-11 13:32:00,
2013-02-11 07:42:00,33.0,24.0,29.59,SW,227,8.0,-999.0,70,-99.99,,,-99.99,,2013-02-11 13:42:00,
2013-02-11 07:52:00,33.0,25.0,29.60,West,263,7.0,-999.0,71,-99.99,,,-99.99,,2013-02-11 13:52:00,
2013-02-11 08:01:00,33.0,25.0,29.62,West,273,6.0,-999.0,71,-99.99,,,-99.99,,2013-02-11 14:01:00,
2013-02-11 08:11:00,33.0,25.0,29.62,West,273,6.0,-999.0,71,-99.99,,,-99.99,,2013-02-11 14:11:00,
2013-02-11 08:22:00,33.0,25.0,29.62,West,261,6.0,-999.0,72,-99.99,,,-99.99,,2013-02-11 14:22:00,
2013-02-11 08:32:00,33.0,25.0,29.63,West,277,7.0,-999.0,71,-99.99,,,-99.99,,2013-02-11 14:32:00,
2013-02-11 08:42:00,33.0,24.0,29.64,West,261,8.0,-999.0,68,-99.99,,,-99.99,,2013-02-11 14:42:00,
2013-02-11 08:53:00,33.0,24.0,29.64,West,261,8.0,-999.0,68,-99.99,,,-99.99,,2013-02-11 14:53:00,
2013-02-11 09:02:00,34.0,25.0,29.65,WSW,250,7.0,-999.0,70,-99.99,,,-99.99,,2013-02-11 15:02:00,
2013-02-11 09:11:00,34.0,25.0,29.65,WSW,250,7.0,-999.0,70,-99.99,,,-99.99,,2013-02-11 15:11:00,
2013-02-11 09:22:00,34.0,25.0,29.65,WNW,284,9.0,-999.0,69,-99.99,,,-99.99,,2013-02-11 15:22:00,
2013-02-11 09:32:00,34.0,25.0,29.66,SW,227,7.0,-999.0,69,-99.99,,,-99.99,,2013-02-11 15:32:00,
2013-02-11 09:42:00,34.0,25.0,29.67,WNW,284,7.0,-999.0,70,-99.99,,,-99.99,,2013-02-11 15:42:00,
2013-02-11 09:52:00,34.0,25.0,29.67,WNW,284,7.0,-999.0,70,-99.99,,,-99.99,,2013-02-11 15:52:00,
2013-02-11 10:02:00,34.0,26.0,29.68,WSW,248,4.0,-999.0,71,-99.99,,,-99.99,,2013-02-11 16:02:00,
2013-02-11 10:11:00,34.0,26.0,29.68,WSW,248,4.0,-999.0,71,-99.99,,,-99.99,,2013-02-11 16:11:00,
2013-02-11 10:22:00,34.0,25.0,29.68,West,280,5.0,-999.0,69,-99.99,,,-99.99,,2013-02-11 16:22:00,
2013-02-11 10:32:00,34.0,25.0,29.69,WNW,284,6.0,-999.0,68,-99.99,,,-99.99,,2013-02-11 16:32:00,
2013-02-11 10:42:00,34.0,25.0,29.70,West,271,7.0,-999.0,69,-99.99,,,-99.99,,2013-02-11 16:42:00,
2013-02-11 10:52:00,34.0,25.0,29.70,West,271,7.0,-999.0,69,-99.99,,,-99.99,,2013-02-11 16:52:00,
2013-02-11 11:01:00,34.0,25.0,29.70,West,275,5.0,-999.0,69,-99.99,,,-99.99,,2013-02-11 17:01:00,
2013-02-11 11:11:00,34.0,25.0,29.70,West,275,5.0,-999.0,69,-99.99,,,-99.99,,2013-02-11 17:11:00,
2013-02-11 11:21:00,34.0,25.0,29.71,West,261,5.0,-999.0,70,-99.99,,,-99.99,,2013-02-11 17:21:00,
2013-02-11 11:32:00,35.0,26.0,29.72,West,279,6.0,-999.0,68,-99.99,,,-99.99,,2013-02-11 17:32:00,
2013-02-11 11:42:00,35.0,26.0,29.72,West,279,6.0,-999.0,68,-99.99,,,-99.99,,2013-02-11 17:42:00,
2013-02-11 11:53:00,35.0,26.0,29.72,West,261,4.0,-999.0,70,-99.99,,,-99.99,,2013-02-11 17:53:00,
2013-02-11 12:01:00,35.0,26.0,29.72,WSW,257,6.0,-999.0,69,-99.99,,,-99.99,,2013-02-11 18:01:00,
2013-02-11 12:11:00,35.0,26.0,29.72,WSW,257,6.0,-999.0,69,-99.99,,,-99.99,,2013-02-11 18:11:00,
2013-02-11 12:21:00,35.0,26.0,29.72,West,280,6.0,-999.0,68,-99.99,,,-99.99,,2013-02-11 18:21:00,
2013-02-11 12:32:00,35.0,25.0,29.72,West,271,7.0,-999.0,67,-99.99,,,-99.99,,2013-02-11 18:32:00,
2013-02-11 12:42:00,35.0,25.0,29.73,West,267,5.0,-999.0,66,-99.99,,,-99.99,,2013-02-11 18:42:00,
2013-02-11 12:53:00,35.0,25.0,29.73,West,267,5.0,-999.0,66,-99.99,,,-99.99,,2013-02-11 18:53:00,
2013-02-11 13:02:00,36.0,26.0,29.72,West,275,4.0,-999.0,67,-99.99,,,-99.99,,2013-02-11 19:02:00,
2013-02-11 13:11:00,37.0,27.0,29.73,WSW,246,7.0,-999.0,66,-99.99,,,-99.99,,2013-02-11 19:11:00,
2013-02-11 13:21:00,37.0,27.0,29.73,WSW,246,7.0,-999.0,66,-99.99,,,-99.99,,2013-02-11 19:21:00,
2013-02-11 13:32:00,37.0,27.0,29.73,South,190,7.0,-999.0,67,-99.99,,,-99.99,,2013-02-11 19:32:00,
2013-02-11 13:41:00,37.0,27.0,29.73,South,190,7.0,-999.0,67,-99.99,,,-99.99,,2013-02-11 19:41:00,
2013-02-11 13:51:00,39.0,28.0,29.73,West,273,5.0,-999.0,65,-99.99,,,-99.99,,2013-02-11 19:51:00,
2013-02-11 14:01:00,38.0,27.0,29.74,WSW,252,3.0,-999.0,64,-99.99,,,-99.99,,2013-02-11 20:01:00,
2013-02-11 14:11:00,38.0,27.0,29.74,SSW,199,4.0,-999.0,64,-99.99,,,-99.99,,2013-02-11 20:11:00,
2013-02-11 14:21:00,38.0,27.0,29.74,SSW,199,4.0,-999.0,64,-99.99,,,-99.99,,2013-02-11 20:21:00,
2013-02-11 14:32:00,39.0,28.0,29.75,SSW,213,3.0,-999.0,64,-99.99,,,-99.99,,2013-02-11 20:32:00,
2013-02-11 14:42:00,38.0,27.0,29.75,West,267,4.0,-999.0,64,-99.99,,,-99.99,,2013-02-11 20:42:00,
2013-02-11 14:52:00,38.0,27.0,29.75,West,267,4.0,-999.0,64,-99.99,,,-99.99,,2013-02-11 20:52:00,
2013-02-11 15:02:00,38.0,28.0,29.75,WNW,295,4.0,-999.0,66,-99.99,,,-99.99,,2013-02-11 21:02:00,
2013-02-11 15:11:00,40.0,29.0,29.76,West,273,5.0,-999.0,65,-99.99,,,-99.99,,2013-02-11 21:11:00,
2013-02-11 15:21:00,40.0,29.0,29.76,West,273,5.0,-999.0,65,-99.99,,,-99.99,,2013-02-11 21:21:00,
2013-02-11 15:32:00,38.0,27.0,29.77,NNE,29,4.0,-999.0,64,-99.99,,,-99.99,,2013-02-11 21:32:00,
2013-02-11 15:42:00,38.0,27.0,29.77,NNE,29,4.0,-999.0,64,-99.99,,,-99.99,,2013-02-11 21:42:00,
2013-02-11 15:52:00,38.0,27.0,29.77,West,279,3.0,-999.0,65,-99.99,,,-99.99,,2013-02-11 21:52:00,
2013-02-11 16:01:00,38.0,27.0,29.78,WSW,237,4.0,-999.0,65,-99.99,,,-99.99,,2013-02-11 22:01:00,
2013-02-11 16:11:00,38.0,28.0,29.78,West,266,3.0,-999.0,67,-99.99,,,-99.99,,2013-02-11 22:11:00,
2013-02-11 16:22:00,38.0,28.0,29.78,West,266,3.0,-999.0,67,-99.99,,,-99.99,,2013-02-11 22:22:00,
2013-02-11 16:32:00,38.0,27.0,29.79,West,277,4.0,-999.0,65,-99.99,,,-99.99,,2013-02-11 22:32:00,
2013-02-11 16:42:00,38.0,27.0,29.79,West,277,4.0,-999.0,65,-99.99,,,-99.99,,2013-02-11 22:42:00,
2013-02-11 16:52:00,37.0,27.0,29.79,WSW,240,4.0,-999.0,67,-99.99,,,-99.99,,2013-02-11 22:52:00,
2013-02-11 17:02:00,36.0,27.0,29.80,West,264,2.0,-999.0,69,-99.99,,,-99.99,,2013-02-11 23:02:00,
2013-02-11 17:11:00,36.0,27.0,29.80,West,264,2.0,-999.0,69,-99.99,,,-99.99,,2013-02-11 23:11:00,
2013-02-11 17:21:00,36.0,27.0,29.81,West,264,2.0,-999.0,70,-99.99,,,-99.99,,2013-02-11 23:21:00,
2013-02-11 17:32:00,35.0,27.0,29.82,West,265,1.0,-999.0,71,-99.99,,,-99.99,,2013-02-11 23:32:00,
2013-02-11 17:42:00,35.0,27.0,29.82,West,265,1.0,-999.0,71,-99.99,,,-99.99,,2013-02-11 23:42:00,
2013-02-11 17:52:00,35.0,27.0,29.82,West,265,1.0,-999.0,72,-99.99,,,-99.99,,2013-02-11 23:52:00,
2013-02-11 18:01:00,34.0,27.0,29.83,West,281,1.0,-999.0,75,-99.99,,,-99.99,,2013-02-12 00:01:00,
2013-02-11 18:11:00,34.0,27.0,29.83,West,281,1.0,-999.0,75,-99.99,,,-99.99,,2013-02-12 00:11:00,
2013-02-11 18:22:00,33.0,26.0,29.83,West,259,2.0,-999.0,75,-99.99,,,-99.99,,2013-02-12 00:22:00,
2013-02-11 18:32:00,33.0,27.0,29.84,West,274,0.0,-999.0,77,-99.99,,,-99.99,,2013-02-12 00:32:00,
2013-02-11 18:42:00,33.0,27.0,29.84,West,274,0.0,-999.0,77,-99.99,,,-99.99,,2013-02-12 00:42:00,
2013-02-11 18:52:00,32.0,26.0,29.84,SW,215,1.0,-999.0,77,-99.99,,,-99.99,,2013-02-12 00:52:00,
2013-02-11 19:02:00,32.0,26.0,29.85,West,261,2.0,-999.0,77,-99.99,,,-99.99,,2013-02-12 01:02:00,
2013-02-11 19:11:00,32.0,26.0,29.85,West,261,2.0,-999.0,77,-99.99,,,-99.99,,2013-02-12 01:11:00,
2013-02-11 19:21:00,32.0,26.0,29.85,West,268,2.0,-999.0,77,-99.99,,,-99.99,,2013-02-12 01:21:00,
2013-02-11 19:32:00,31.0,25.0,29.85,WNW,289,2.0,-999.0,78,-99.99,,,-99.99,,2013-02-12 01:32:00,
2013-02-11 19:42:00,31.0,25.0,29.85,WNW,289,2.0,-999.0,78,-99.99,,,-99.99,,2013-02-12 01:42:00,
2013-02-11 19:52:00,31.0,25.0,29.85,West,259,1.0,-999.0,78,-99.99,,,-99.99,,2013-02-12 01:52:00,
2013-02-11 20:01:00,31.0,25.0,29.85,WSW,254,1.0,-999.0,79,-99.99,,,-99.99,,2013-02-12 02:01:00,
2013-02-11 20:11:00,30.0,24.0,29.86,WSW,255,1.0,-999.0,79,-99.99,,,-99.99,,2013-02-12 02:11:00,
2013-02-11 20:21:00,30.0,24.0,29.86,WSW,255,1.0,-999.0,79,-99.99,,,-99.99,,2013-02-12 02:21:00,
2013-02-11 20:31:00,30.0,25.0,29.87,NE,53,0.0,-999.0,80,-99.99,,,-99.99,,2013-02-12 02:31:00,
2013-02-11 20:41:00,30.0,25.0,29.87,NE,53,0.0,-999.0,80,-99.99,,,-99.99,,2013-02-12 02:41:00,
2013-02-11 20:52:00,30.0,25.0,29.87,WSW,253,0.0,-999.0,80,-99.99,,,-99.99,,2013-02-12 02:52:00,
2013-02-11 21:02:00,29.0,24.0,29.87,West,269,1.0,-999.0,80,-99.99,,,-99.99,,2013-02-12 03:02:00,
2013-02-11 21:11:00,29.0,24.0,29.87,WSW,248,1.0,-999.0,81,-99.99,,,-99.99,,2013-02-12 03:11:00,
2013-02-11 21:21:00,29.0,24.0,29.87,WSW,248,1.0,-999.0,81,-99.99,,,-99.99,,2013-02-12 03:21:00,
2013-02-11 21:31:00,29.0,24.0,29.87,West,265,1.0,-999.0,81,-99.99,,,-99.99,,2013-02-12 03:31:00,
2013-02-11 21:41:00,29.0,24.0,29.88,South,187,0.0,-999.0,82,-99.99,,,-99.99,,2013-02-12 03:41:00,
2013-02-11 21:52:00,29.0,24.0,29.88,South,187,0.0,-999.0,82,-99.99,,,-99.99,,2013-02-12 03:52:00,
2013-02-11 22:01:00,29.0,24.0,29.88,West,281,0.0,-999.0,82,-99.99,,,-99.99,,2013-02-12 04:01:00,
2013-02-11 22:11:00,29.0,24.0,29.88,West,281,0.0,-999.0,82,-99.99,,,-99.99,,2013-02-12 04:11:00,
2013-02-11 22:21:00,29.0,24.0,29.88,WSW,237,0.0,-999.0,82,-99.99,,,-99.99,,2013-02-12 04:21:00,
2013-02-11 22:31:00,29.0,24.0,29.89,SW,234,0.0,-999.0,82,-99.99,,,-99.99,,2013-02-12 04:31:00,
2013-02-11 22:41:00,29.0,24.0,29.89,SW,234,0.0,-999.0,82,-99.99,,,-99.99,,2013-02-12 04:41:00,
2013-02-11 22:51:00,28.0,24.0,29.89,WSW,242,1.0,-999.0,83,-99.99,,,-99.99,,2013-02-12 04:51:00,
2013-02-11 23:01:00,28.0,24.0,29.89,West,268,1.0,-999.0,84,-99.99,,,-99.99,,2013-02-12 05:01:00,
2013-02-11 23:11:00,28.0,24.0,29.90,WSW,238,0.0,-999.0,85,-99.99,,,-99.99,,2013-02-12 05:11:00,
2013-02-11 23:21:00,28.0,24.0,29.90,WSW,238,0.0,-999.0,85,-99.99,,,-99.99,,2013-02-12 05:21:00,
2013-02-11 23:31:00,28.0,24.0,29.91,WSW,254,0.0,-999.0,85,-99.99,,,-99.99,,2013-02-12 05:31:00,
2013-02-11 23:42:00,28.0,24.0,29.91,WSW,254,0.0,-999.0,85,-99.99,,,-99.99,,2013-02-12 05:42:00,
2013-02-11 23:52:00,28.0,24.0,29.91,WSW,246,1.0,-999.0,85,-99.99,,,-99.99,,2013-02-12 05:52:00,